Weather History for Orange, MA

Change the Weather History Date:

Tuesday, February 5, 2013

  Actual Average Record
Temperature  
Mean Temperature 22 °F -  
Max Temperature 28 °F 32 °F 48 °F (2005)
Min Temperature 17 °F 11 °F -2 °F (2009)
Degree Days  
Heating Degree Days 42    
Moisture  
Dew Point 12 °F    
Average Humidity 64    
Maximum Humidity 84    
Minimum Humidity 45    
Precipitation  
Precipitation 0.00 in - - ()
Sea Level Pressure  
Sea Level Pressure 29.96 in    
Wind  
Wind Speed 3 mph (South)    
Max Wind Speed 6 mph    
Max Gust Speed -    
Visibility 9 miles    
Events Snow    
Averages and records for this station are not official NWS values.
T = Trace of Precipitation, MM = Missing Value Source: NWS Daily Summary

Daily Weather History Graph

Daily Weather History Graph

Search for Another Location

Airport:

Trip Planner

Search our weather history database for the weather conditions in past years. The results will help you decide how hot, cold, wet, or windy it might be!

Date:

Astronomy

Feb. 05, 2013 Rise Set
Actual Time 6:58 AM EST 5:08 PM EST
Civil Twilight 6:28 AM EST 5:37 PM EST
Nautical Twilight 5:55 AM EST 6:11 PM EST
Astronomical Twilight 5:22 AM EST 6:44 PM EST
Moon 2:39 AM EST (2/5) 12:20 PM EST (2/5)
Length of Visible Light 11h 09m
Length of Day
10h 09m
Waning Crescent, 27% of the Moon is Illuminated
Feb 5
Waning Crescent
Feb 10
New
Feb 17
First Quarter
Feb 25
Full
Mar 4
Last Quarter

Hourly Weather History & Observations

Time (EST) Temp. Windchill Dew Point Humidity Pressure Visibility Wind Dir Wind Speed Gust Speed Precip Events Conditions
12:52 AM 17.1 °F 8.7 °F 6.1 °F 62% 29.95 in 10.0 mi SSW 5.8 mph - N/A   Overcast
1:52 AM 18.0 °F 12.7 °F 6.1 °F 60% 29.96 in 10.0 mi South 3.5 mph - N/A   Overcast
2:52 AM 17.1 °F - 8.1 °F 68% 29.95 in 10.0 mi Calm Calm - N/A   Overcast
3:52 AM 17.1 °F - 8.1 °F 68% 29.95 in 10.0 mi Calm Calm - N/A   Overcast
4:52 AM 17.1 °F - 10.0 °F 74% 29.95 in 10.0 mi Calm Calm - N/A   Overcast
5:52 AM 17.1 °F 11.7 °F 10.0 °F 74% 29.96 in 10.0 mi South 3.5 mph - N/A   Overcast
6:52 AM 17.1 °F - 10.9 °F 77% 29.97 in 10.0 mi Calm Calm - N/A   Overcast
7:52 AM 18.0 °F 12.7 °F 10.0 °F 71% 30.01 in 10.0 mi SW 3.5 mph - N/A   Overcast
8:52 AM 21.0 °F 13.4 °F 9.0 °F 60% 30.00 in 10.0 mi NW 5.8 mph - N/A   Overcast
9:52 AM 21.9 °F - 12.9 °F 68% 30.01 in - Calm Calm - N/A   Overcast
10:52 AM 24.1 °F - 8.1 °F 51% 30.01 in 10.0 mi North - - N/A   Unknown
11:52 AM 25.0 °F - 8.1 °F 49% 29.98 in 10.0 mi Calm Calm - N/A   Clear
12:52 PM 26.1 °F - 8.1 °F 47% 29.96 in 10.0 mi Calm Calm - N/A   Clear
1:52 PM 27.0 °F 23.0 °F 9.0 °F 47% 29.95 in 10.0 mi Variable 3.5 mph - N/A   Clear
2:52 PM 28.9 °F 22.8 °F 10.0 °F 45% 29.94 in 10.0 mi South 5.8 mph - N/A   Clear
3:52 PM 28.0 °F 21.7 °F 10.9 °F 49% 29.92 in 10.0 mi SSE 5.8 mph - N/A   Clear
4:52 PM 28.0 °F 24.2 °F 10.9 °F 49% 29.93 in 10.0 mi SSE 3.5 mph - N/A   Clear
6:52 PM 26.1 °F 20.5 °F 12.9 °F 58% 29.93 in 10.0 mi SSE 4.6 mph - N/A   Clear
7:52 PM 25.0 °F - 15.1 °F 66% 29.94 in 10.0 mi Calm Calm - N/A   Mostly Cloudy
8:52 PM 25.0 °F 19.3 °F 16.0 °F 69% 29.95 in 10.0 mi SSE 4.6 mph - N/A   Overcast
9:52 PM 24.1 °F 19.7 °F 19.0 °F 81% 29.94 in 5.0 mi South 3.5 mph - 0.00 in Snow Light Snow
10:52 PM 24.1 °F 18.2 °F 19.0 °F 81% 29.93 in 7.0 mi SSW 4.6 mph - 0.00 in   Overcast
11:23 PM 24.8 °F - 19.4 °F 80% 29.91 in 9.0 mi Calm Calm - N/A   Overcast
11:52 PM 24.1 °F - 19.9 °F 84% 29.93 in 5.0 mi Calm Calm - 0.00 in Snow Light Snow